Time,TemperatureF,DewpointF,PressureIn,WindDirection,WindDirectionDegrees,WindSpeedMPH,WindSpeedGustMPH,Humidity,HourlyPrecipIn,Conditions,Clouds,dailyrainin,SoftwareType,DateUTC
2013-04-23 00:03:00,73.0,-99.9,30.04,ENE,62,7.0,14.0,-999,-99.99,,,-99.99,,2013-04-23 04:03:00,
2013-04-23 00:13:00,73.0,-99.9,30.04,ENE,67,8.0,13.0,-999,-99.99,,,-99.99,,2013-04-23 04:13:00,
2013-04-23 00:23:00,73.0,-99.9,30.04,ENE,67,6.0,10.0,-999,-99.99,,,-99.99,,2013-04-23 04:23:00,
2013-04-23 00:33:00,73.0,-99.9,30.04,NE,54,7.0,12.0,-999,-99.99,,,-99.99,,2013-04-23 04:33:00,
2013-04-23 00:44:00,72.0,-99.9,30.04,ENE,74,7.0,12.0,-999,-99.99,,,-99.99,,2013-04-23 04:44:00,
2013-04-23 00:53:00,72.0,-99.9,30.04,ENE,69,7.0,11.0,-999,-99.99,,,-99.99,,2013-04-23 04:53:00,
2013-04-23 01:02:00,72.0,-99.9,30.04,ENE,59,8.0,11.0,-999,-99.99,,,-99.99,,2013-04-23 05:02:00,
2013-04-23 01:12:00,72.0,-99.9,30.04,ENE,59,6.0,15.0,-999,-99.99,,,-99.99,,2013-04-23 05:12:00,
2013-04-23 01:22:00,72.0,-99.9,30.04,ENE,58,6.0,12.0,-999,-99.99,,,-99.99,,2013-04-23 05:22:00,
2013-04-23 01:32:00,72.0,-99.9,30.03,NE,55,6.0,10.0,-999,-99.99,,,-99.99,,2013-04-23 05:32:00,
2013-04-23 01:43:00,71.0,-99.9,30.03,NE,46,8.0,12.0,-999,-99.99,,,-99.99,,2013-04-23 05:43:00,
2013-04-23 01:52:00,71.0,-99.9,30.03,NE,43,6.0,11.0,-999,-99.99,,,-99.99,,2013-04-23 05:52:00,
2013-04-23 02:02:00,71.0,-99.9,30.02,NE,38,8.0,11.0,-999,-99.99,,,-99.99,,2013-04-23 06:02:00,
2013-04-23 02:12:00,70.0,-99.9,30.02,NE,45,9.0,11.0,-999,-99.99,,,-99.99,,2013-04-23 06:12:00,
2013-04-23 02:22:00,70.0,-99.9,30.02,NE,45,8.0,12.0,-999,-99.99,,,-99.99,,2013-04-23 06:22:00,
2013-04-23 02:33:00,70.0,-99.9,30.02,NE,44,9.0,13.0,-999,-99.99,,,-99.99,,2013-04-23 06:33:00,
2013-04-23 02:42:00,70.0,-99.9,30.01,NNE,30,9.0,14.0,-999,-99.99,,,-99.99,,2013-04-23 06:42:00,
2013-04-23 02:52:00,69.0,-99.9,30.01,NNE,30,11.0,14.0,-999,-99.99,,,-99.99,,2013-04-23 06:52:00,
2013-04-23 03:02:00,69.0,-99.9,30.01,NNE,32,11.0,14.0,-999,-99.99,,,-99.99,,2013-04-23 07:02:00,
2013-04-23 03:11:00,69.0,-99.9,30.01,NE,40,9.0,15.0,-999,-99.99,,,-99.99,,2013-04-23 07:11:00,
2013-04-23 03:22:00,68.0,-99.9,30.01,NE,39,9.0,14.0,-999,-99.99,,,-99.99,,2013-04-23 07:22:00,
2013-04-23 03:32:00,68.0,-99.9,30.01,NE,41,9.0,15.0,-999,-99.99,,,-99.99,,2013-04-23 07:32:00,
2013-04-23 03:42:00,69.0,-99.9,30.00,NNE,32,9.0,12.0,-999,-99.99,,,-99.99,,2013-04-23 07:42:00,
2013-04-23 03:52:00,69.0,-99.9,30.00,NNE,33,9.0,14.0,-999,-99.99,,,-99.99,,2013-04-23 07:52:00,
2013-04-23 04:02:00,69.0,-99.9,30.00,NNE,24,10.0,13.0,-999,-99.99,,,-99.99,,2013-04-23 08:02:00,
2013-04-23 04:11:00,69.0,-99.9,30.00,NNE,28,9.0,13.0,-999,-99.99,,,-99.99,,2013-04-23 08:11:00,
2013-04-23 04:22:00,68.0,-99.9,30.00,NNE,30,11.0,13.0,-999,-99.99,,,-99.99,,2013-04-23 08:22:00,
2013-04-23 04:32:00,68.0,-99.9,30.00,NNE,31,11.0,15.0,-999,-99.99,,,-99.99,,2013-04-23 08:32:00,
2013-04-23 04:42:00,68.0,-99.9,29.99,NE,42,11.0,15.0,-999,-99.99,,,-99.99,,2013-04-23 08:42:00,
2013-04-23 04:52:00,68.0,-99.9,30.00,NNE,31,10.0,14.0,-999,-99.99,,,-99.99,,2013-04-23 08:52:00,
2013-04-23 05:02:00,68.0,-99.9,30.00,NNE,24,9.0,11.0,-999,-99.99,,,-99.99,,2013-04-23 09:02:00,
2013-04-23 05:11:00,68.0,-99.9,30.00,NNE,23,9.0,11.0,-999,-99.99,,,-99.99,,2013-04-23 09:11:00,
2013-04-23 05:22:00,67.0,-99.9,30.00,NNE,23,9.0,13.0,-999,-99.99,,,-99.99,,2013-04-23 09:22:00,
2013-04-23 05:33:00,67.0,-99.9,30.00,NNE,31,9.0,13.0,-999,-99.99,,,-99.99,,2013-04-23 09:33:00,
2013-04-23 05:43:00,67.0,-99.9,30.00,NNE,31,9.0,13.0,-999,-99.99,,,-99.99,,2013-04-23 09:43:00,
2013-04-23 05:53:00,68.0,-99.9,30.00,NNE,24,8.0,12.0,-999,-99.99,,,-99.99,,2013-04-23 09:53:00,
2013-04-23 06:03:00,68.0,-99.9,29.99,NE,42,9.0,11.0,-999,-99.99,,,-99.99,,2013-04-23 10:03:00,
2013-04-23 06:13:00,68.0,-99.9,29.99,NE,39,9.0,11.0,-999,-99.99,,,-99.99,,2013-04-23 10:13:00,
2013-04-23 06:23:00,67.0,-99.9,29.99,NNE,29,9.0,11.0,-999,-99.99,,,-99.99,,2013-04-23 10:23:00,
2013-04-23 06:33:00,68.0,-99.9,30.00,NE,35,10.0,13.0,-999,-99.99,,,-99.99,,2013-04-23 10:33:00,
2013-04-23 06:43:00,67.0,-99.9,30.00,NE,36,11.0,15.0,-999,-99.99,,,-99.99,,2013-04-23 10:43:00,
2013-04-23 06:53:00,67.0,-99.9,30.01,NE,39,10.0,14.0,-999,-99.99,,,-99.99,,2013-04-23 10:53:00,
2013-04-23 07:03:00,68.0,-99.9,30.01,NE,34,12.0,14.0,-999,-99.99,,,-99.99,,2013-04-23 11:03:00,
2013-04-23 07:12:00,68.0,-99.9,30.01,NE,37,10.0,15.0,-999,-99.99,,,-99.99,,2013-04-23 11:12:00,
2013-04-23 07:22:00,68.0,-99.9,30.01,NE,42,10.0,14.0,-999,-99.99,,,-99.99,,2013-04-23 11:22:00,
2013-04-23 07:33:00,68.0,-99.9,30.01,NE,47,9.0,15.0,-999,-99.99,,,-99.99,,2013-04-23 11:33:00,
2013-04-23 07:43:00,68.0,-99.9,30.02,NNE,28,10.0,13.0,-999,-99.99,,,-99.99,,2013-04-23 11:43:00,
2013-04-23 07:53:00,68.0,-99.9,30.02,NE,40,10.0,13.0,-999,-99.99,,,-99.99,,2013-04-23 11:53:00,
2013-04-23 08:02:00,68.0,-99.9,30.03,NE,36,13.0,15.0,-999,-99.99,,,-99.99,,2013-04-23 12:02:00,
2013-04-23 08:12:00,68.0,-99.9,30.03,NE,48,9.0,12.0,-999,-99.99,,,-99.99,,2013-04-23 12:12:00,
2013-04-23 08:22:00,69.0,-99.9,30.04,NE,37,10.0,14.0,-999,-99.99,,,-99.99,,2013-04-23 12:22:00,
2013-04-23 08:32:00,69.0,-99.9,30.04,NNE,31,10.0,14.0,-999,-99.99,,,-99.99,,2013-04-23 12:32:00,
2013-04-23 08:42:00,69.0,-99.9,30.04,NE,38,11.0,15.0,-999,-99.99,,,-99.99,,2013-04-23 12:42:00,
2013-04-23 08:52:00,68.0,-99.9,30.04,NE,34,11.0,14.0,-999,-99.99,,,-99.99,,2013-04-23 12:52:00,
2013-04-23 09:01:00,69.0,-99.9,30.04,NE,38,9.0,15.0,-999,-99.99,,,-99.99,,2013-04-23 13:01:00,
2013-04-23 09:12:00,69.0,-99.9,30.04,NE,43,8.0,13.0,-999,-99.99,,,-99.99,,2013-04-23 13:12:00,
2013-04-23 09:22:00,69.0,-99.9,30.05,NE,45,9.0,11.0,-999,-99.99,,,-99.99,,2013-04-23 13:22:00,
2013-04-23 09:32:00,69.0,-99.9,30.05,NE,38,12.0,14.0,-999,-99.99,,,-99.99,,2013-04-23 13:32:00,
2013-04-23 09:42:00,70.0,-99.9,30.05,NNE,31,9.0,13.0,-999,-99.99,,,-99.99,,2013-04-23 13:42:00,
2013-04-23 09:52:00,70.0,-99.9,30.06,NE,34,9.0,12.0,-999,-99.99,,,-99.99,,2013-04-23 13:52:00,
2013-04-23 10:02:00,70.0,-99.9,30.06,NE,35,10.0,13.0,-999,-99.99,,,-99.99,,2013-04-23 14:02:00,
2013-04-23 10:11:00,70.0,-99.9,30.06,NNE,33,9.0,11.0,-999,-99.99,,,-99.99,,2013-04-23 14:11:00,
2013-04-23 10:22:00,71.0,-99.9,30.06,NNE,33,9.0,11.0,-999,-99.99,,,-99.99,,2013-04-23 14:22:00,
2013-04-23 10:32:00,71.0,-99.9,30.07,NE,35,9.0,12.0,-999,-99.99,,,-99.99,,2013-04-23 14:32:00,
2013-04-23 10:42:00,72.0,-99.9,30.07,NE,38,9.0,11.0,-999,-99.99,,,-99.99,,2013-04-23 14:42:00,
2013-04-23 10:52:00,72.0,-99.9,30.07,NE,50,8.0,13.0,-999,-99.99,,,-99.99,,2013-04-23 14:52:00,
2013-04-23 11:01:00,72.0,-99.9,30.07,NE,50,8.0,13.0,-999,-99.99,,,-99.99,,2013-04-23 15:01:00,
2013-04-23 11:12:00,73.0,-99.9,30.07,NE,42,9.0,13.0,-999,-99.99,,,-99.99,,2013-04-23 15:12:00,
2013-04-23 11:22:00,73.0,-99.9,30.08,NNE,26,9.0,13.0,-999,-99.99,,,-99.99,,2013-04-23 15:22:00,
2013-04-23 11:32:00,74.0,-99.9,30.08,NE,55,6.0,15.0,-999,-99.99,,,-99.99,,2013-04-23 15:32:00,
2013-04-23 11:43:00,75.0,-99.9,30.08,NE,47,8.0,12.0,-999,-99.99,,,-99.99,,2013-04-23 15:43:00,
2013-04-23 11:53:00,75.0,-99.9,30.08,NE,42,9.0,12.0,-999,-99.99,,,-99.99,,2013-04-23 15:53:00,
2013-04-23 12:03:00,76.0,-99.9,30.08,NE,38,11.0,13.0,-999,-99.99,,,-99.99,,2013-04-23 16:03:00,
2013-04-23 12:12:00,76.0,-99.9,30.08,NE,43,7.0,12.0,-999,-99.99,,,-99.99,,2013-04-23 16:12:00,
2013-04-23 12:23:00,77.0,-99.9,30.08,NE,49,9.0,13.0,-999,-99.99,,,-99.99,,2013-04-23 16:23:00,
2013-04-23 12:34:00,77.0,-99.9,30.07,NE,44,9.0,13.0,-999,-99.99,,,-99.99,,2013-04-23 16:34:00,
2013-04-23 12:43:00,78.0,-99.9,30.07,NE,47,8.0,12.0,-999,-99.99,,,-99.99,,2013-04-23 16:43:00,
2013-04-23 12:53:00,78.0,-99.9,30.06,NE,37,8.0,10.0,-999,-99.99,,,-99.99,,2013-04-23 16:53:00,
2013-04-23 13:03:00,78.0,-99.9,30.06,ENE,73,11.0,18.0,-999,-99.99,,,-99.99,,2013-04-23 17:03:00,
2013-04-23 13:12:00,79.0,-99.9,30.06,ENE,67,9.0,14.0,-999,-99.99,,,-99.99,,2013-04-23 17:12:00,
2013-04-23 13:22:00,79.0,-99.9,30.05,NE,45,6.0,14.0,-999,-99.99,,,-99.99,,2013-04-23 17:22:00,
2013-04-23 13:33:00,79.0,-99.9,30.05,NE,55,6.0,13.0,-999,-99.99,,,-99.99,,2013-04-23 17:33:00,
2013-04-23 13:43:00,79.0,-99.9,30.04,NE,40,9.0,13.0,-999,-99.99,,,-99.99,,2013-04-23 17:43:00,
2013-04-23 13:53:00,79.0,-99.9,30.04,NE,38,8.0,11.0,-999,-99.99,,,-99.99,,2013-04-23 17:53:00,
2013-04-23 14:02:00,79.0,-99.9,30.04,NE,39,9.0,12.0,-999,-99.99,,,-99.99,,2013-04-23 18:02:00,
2013-04-23 14:12:00,80.0,-99.9,30.04,NE,37,7.0,11.0,-999,-99.99,,,-99.99,,2013-04-23 18:12:00,
2013-04-23 14:22:00,80.0,-99.9,30.03,NE,36,8.0,10.0,-999,-99.99,,,-99.99,,2013-04-23 18:22:00,
2013-04-23 14:32:00,80.0,-99.9,30.03,NE,37,8.0,11.0,-999,-99.99,,,-99.99,,2013-04-23 18:32:00,
2013-04-23 14:42:00,80.0,-99.9,30.03,NNE,13,8.0,10.0,-999,-99.99,,,-99.99,,2013-04-23 18:42:00,
2013-04-23 14:52:00,81.0,-99.9,30.03,NE,37,7.0,10.0,-999,-99.99,,,-99.99,,2013-04-23 18:52:00,
2013-04-23 15:02:00,81.0,-99.9,30.02,NE,37,8.0,11.0,-999,-99.99,,,-99.99,,2013-04-23 19:02:00,
2013-04-23 15:11:00,81.0,-99.9,30.02,NNE,31,6.0,9.0,-999,-99.99,,,-99.99,,2013-04-23 19:11:00,
2013-04-23 15:22:00,81.0,-99.9,30.02,NNE,30,8.0,10.0,-999,-99.99,,,-99.99,,2013-04-23 19:22:00,
2013-04-23 15:33:00,82.0,-99.9,30.01,NE,35,6.0,9.0,-999,-99.99,,,-99.99,,2013-04-23 19:33:00,
2013-04-23 15:42:00,82.0,-99.9,30.01,NE,39,5.0,9.0,-999,-99.99,,,-99.99,,2013-04-23 19:42:00,
2013-04-23 15:52:00,82.0,-99.9,30.01,NNE,32,7.0,10.0,-999,-99.99,,,-99.99,,2013-04-23 19:52:00,
2013-04-23 16:02:00,82.0,-99.9,30.00,NNE,29,6.0,8.0,-999,-99.99,,,-99.99,,2013-04-23 20:02:00,
2013-04-23 16:11:00,83.0,-99.9,30.00,NNE,32,9.0,12.0,-999,-99.99,,,-99.99,,2013-04-23 20:11:00,
2013-04-23 16:22:00,83.0,-99.9,30.00,NE,37,6.0,9.0,-999,-99.99,,,-99.99,,2013-04-23 20:22:00,
2013-04-23 16:32:00,83.0,-99.9,29.99,NE,35,7.0,9.0,-999,-99.99,,,-99.99,,2013-04-23 20:32:00,
2013-04-23 16:42:00,83.0,-99.9,29.99,NE,55,6.0,14.0,-999,-99.99,,,-99.99,,2013-04-23 20:42:00,
2013-04-23 16:52:00,83.0,-99.9,29.98,ENE,66,9.0,12.0,-999,-99.99,,,-99.99,,2013-04-23 20:52:00,
2013-04-23 17:02:00,83.0,-99.9,29.98,NE,42,12.0,15.0,-999,-99.99,,,-99.99,,2013-04-23 21:02:00,
2013-04-23 17:12:00,83.0,-99.9,29.99,NE,54,9.0,13.0,-999,-99.99,,,-99.99,,2013-04-23 21:12:00,
2013-04-23 17:22:00,82.0,-99.9,29.98,NE,38,11.0,15.0,-999,-99.99,,,-99.99,,2013-04-23 21:22:00,
2013-04-23 17:33:00,83.0,-99.9,29.98,East,86,9.0,15.0,-999,-99.99,,,-99.99,,2013-04-23 21:33:00,
2013-04-23 17:43:00,83.0,-99.9,29.99,ENE,60,9.0,17.0,-999,-99.99,,,-99.99,,2013-04-23 21:43:00,
2013-04-23 17:53:00,83.0,-99.9,29.99,NE,51,10.0,15.0,-999,-99.99,,,-99.99,,2013-04-23 21:53:00,
2013-04-23 18:03:00,83.0,-99.9,29.99,ENE,78,6.0,10.0,-999,-99.99,,,-99.99,,2013-04-23 22:03:00,
2013-04-23 18:12:00,83.0,-99.9,29.99,East,79,9.0,14.0,-999,-99.99,,,-99.99,,2013-04-23 22:12:00,
2013-04-23 18:23:00,83.0,-99.9,29.99,East,86,7.0,16.0,-999,-99.99,,,-99.99,,2013-04-23 22:23:00,
2013-04-23 18:33:00,82.0,-99.9,29.99,NE,47,10.0,15.0,-999,-99.99,,,-99.99,,2013-04-23 22:33:00,
2013-04-23 18:42:00,82.0,-99.9,29.99,East,80,11.0,15.0,-999,-99.99,,,-99.99,,2013-04-23 22:42:00,
2013-04-23 18:53:00,82.0,-99.9,30.00,East,97,7.0,15.0,-999,-99.99,,,-99.99,,2013-04-23 22:53:00,
2013-04-23 19:03:00,81.0,-99.9,30.00,East,83,7.0,13.0,-999,-99.99,,,-99.99,,2013-04-23 23:03:00,
2013-04-23 19:12:00,81.0,-99.9,30.00,East,84,9.0,14.0,-999,-99.99,,,-99.99,,2013-04-23 23:12:00,
2013-04-23 19:22:00,80.0,-99.9,30.01,East,83,10.0,16.0,-999,-99.99,,,-99.99,,2013-04-23 23:22:00,
2013-04-23 19:32:00,80.0,-99.9,30.01,East,79,7.0,14.0,-999,-99.99,,,-99.99,,2013-04-23 23:32:00,
2013-04-23 19:42:00,80.0,-99.9,30.01,ENE,77,10.0,15.0,-999,-99.99,,,-99.99,,2013-04-23 23:42:00,
2013-04-23 19:52:00,80.0,-99.9,30.01,ENE,75,9.0,16.0,-999,-99.99,,,-99.99,,2013-04-23 23:52:00,
2013-04-23 20:02:00,79.0,-99.9,30.01,ENE,69,7.0,14.0,-999,-99.99,,,-99.99,,2013-04-24 00:02:00,
2013-04-23 20:11:00,78.0,-99.9,30.02,East,82,10.0,15.0,-999,-99.99,,,-99.99,,2013-04-24 00:11:00,
2013-04-23 20:22:00,78.0,-99.9,30.03,ENE,74,6.0,14.0,-999,-99.99,,,-99.99,,2013-04-24 00:22:00,
2013-04-23 20:32:00,78.0,-99.9,30.03,East,81,8.0,13.0,-999,-99.99,,,-99.99,,2013-04-24 00:32:00,
2013-04-23 20:42:00,77.0,-99.9,30.03,ENE,72,8.0,12.0,-999,-99.99,,,-99.99,,2013-04-24 00:42:00,
2013-04-23 20:52:00,77.0,-99.9,30.03,East,79,7.0,12.0,-999,-99.99,,,-99.99,,2013-04-24 00:52:00,
2013-04-23 21:02:00,77.0,-99.9,30.04,ENE,76,9.0,11.0,-999,-99.99,,,-99.99,,2013-04-24 01:02:00,
2013-04-23 21:12:00,76.0,-99.9,30.04,East,82,8.0,12.0,-999,-99.99,,,-99.99,,2013-04-24 01:12:00,
2013-04-23 21:22:00,76.0,-99.9,30.04,ENE,78,7.0,11.0,-999,-99.99,,,-99.99,,2013-04-24 01:22:00,
2013-04-23 21:32:00,76.0,-99.9,30.05,ENE,74,4.0,11.0,-999,-99.99,,,-99.99,,2013-04-24 01:32:00,
2013-04-23 21:43:00,75.0,-99.9,30.06,East,79,6.0,9.0,-999,-99.99,,,-99.99,,2013-04-24 01:43:00,
2013-04-23 21:52:00,75.0,-99.9,30.06,East,80,8.0,12.0,-999,-99.99,,,-99.99,,2013-04-24 01:52:00,
2013-04-23 22:02:00,74.0,-99.9,30.07,ENE,76,7.0,12.0,-999,-99.99,,,-99.99,,2013-04-24 02:02:00,
2013-04-23 22:20:00,74.0,-99.9,30.07,ENE,72,11.0,16.0,-999,-99.99,,,-99.99,,2013-04-24 02:20:00,
2013-04-23 22:30:00,74.0,-99.9,30.07,ENE,76,9.0,14.0,-999,-99.99,,,-99.99,,2013-04-24 02:30:00,
2013-04-23 22:42:00,74.0,-99.9,30.08,East,87,8.0,12.0,-999,-99.99,,,-99.99,,2013-04-24 02:42:00,
2013-04-23 22:51:00,73.0,-99.9,30.08,East,79,10.0,16.0,-999,-99.99,,,-99.99,,2013-04-24 02:51:00,
2013-04-23 23:02:00,73.0,-99.9,30.09,ENE,59,8.0,15.0,-999,-99.99,,,-99.99,,2013-04-24 03:02:00,
2013-04-23 23:12:00,73.0,-99.9,30.09,ENE,77,7.0,12.0,-999,-99.99,,,-99.99,,2013-04-24 03:12:00,
2013-04-23 23:18:00,73.0,-99.9,30.09,ENE,76,9.0,14.0,-999,-99.99,,,-99.99,,2013-04-24 03:18:00,
2013-04-23 23:33:00,72.0,-99.9,30.09,East,86,8.0,13.0,-999,-99.99,,,-99.99,,2013-04-24 03:33:00,